Regional Weather Roundup
Issued by NWS Portland, ME

Home | Current Version | Previous Version | Text Only | Print | Product List | Glossary On
Versions: 1 2 3 4 5 6 7 8 9 10 11 12 13 14 15 16 17 18 19 20 21 22 23 24 25 26 27 28 29 30 31 32 33 34 35 36 37 38 39 40 41 42 43 44 45 46 47 48 49 50
000
ASUS41 KGYX 300510
RWRGYX
WEATHER ROUNDUP FOR MAINE AND NEW HAMPSHIRE
NATIONAL WEATHER SERVICE GRAY ME
100 AM EDT WED JUL 30 2014

MEZ002-005-006-010-012-015-018-020-021-024-026-027-029-300600-
MAINE

CITY           SKY/WX    TMP DP  RH WIND       PRES   REMARKS
PORTLAND       CLOUDY    60  57  89 SE3       29.95R
SANFORD        MOCLDY    55  52  88 CALM      29.96R
BAR HARBOR     PTCLDY    57  57 100 CALM      29.97R
WISCASSET      MOCLDY    58  56  93 CALM      29.97R
ROCKLAND       MOCLDY    59  57  94 CALM      29.95R
FRYEBURG       PTCLDY    58  56  93 W3        29.97R
LEWISTONAUBURN CLEAR     59  54  82 N3        29.96R
AUGUSTA        CLEAR     60  55  83 N3        29.96S
WATERVILLE     MOCLDY    61  54  77 N6        29.93R
BANGOR         MOCLDY    57  54  89 NW3       29.96S
GREENVILLE       N/A     53  49  86 NE3       29.96S
MILLINOCKET    CLEAR     53  50  89 CALM      29.98R
HOULTON        CLEAR     50  48  93 CALM      29.96R
PRESQUE ISLE   CLEAR     52  48  87 CALM      29.96R
FRENCHVILLE    CLEAR     56  51  84 W5        29.94R
CARIBOU        CLEAR     55  53  93 S3        29.94R
$$

NHZ002-005-008-009-011-012-014-300600-
NEW HAMPSHIRE

CITY           SKY/WX    TMP DP  RH WIND       PRES   REMARKS
PORTSMOUTH     PTCLDY    62  60  93 NW1       29.94R
ROCHESTER      CLOUDY    58  55  90 NW5       29.95R
NASHUA         MOCLDY    62  60  93 CALM      29.96R
MANCHESTER     MOCLDY    63  59  87 CALM      29.94R
CONCORD        CLEAR     56  54  93 NE3       29.96R
LACONIA          N/A     57  52  82 CALM      29.96R
PLYMOUTH       MOCLDY    51  50  96 CALM      29.98R
BERLIN         FOG       49  48  97 CALM      29.99S VSB 1
WHITEFIELD     PTCLDY    49  46  90 CALM      29.99R
JAFFREY        CLEAR     56  54  93 CALM      29.99R
LEBANON        CLEAR     54  51  90 CALM      29.97R
MT WASHINGTON  MOCLDY    41  36  81 SW6         N/A
$$

VTZ005-007-008-300600-
VERMONT

CITY           SKY/WX    TMP DP  RH WIND       PRES   REMARKS
ST JOHNSBURY     N/A     52  51  97 MISG      29.98R
MONTPELIER     FOG       51  51 100 CALM      30.02R VSB 1/4
BURLINGTON     CLEAR     55  52  89 NE3       29.97R
$$

MAZ007-012-024-CTZ003-RIZ002-NYZ038-NYZ072-300600-
SOUTHERN NEW ENGLAND AND NY

CITY           SKY/WX    TMP DP  RH WIND       PRES   REMARKS
BOSTON         MOCLDY    68  54  60 W6        29.95R
WORCESTER      PTCLDY    60  52  74 W6        29.98R
NANTUCKET      CLEAR     64  61  90 W7        29.97S
PROVIDENCE     CLOUDY    64  56  75 W5        29.97R
HARTFORD       MOCLDY    61  54  77 CALM      29.97R
ALBANY         MOCLDY    63  52  67 CALM      29.97R
NEW YORK CITY  CLOUDY    69  52  54 W5        29.98R
$$

ANZ081-ANZ082-ANZ150-NHZ014-MEZ023>029-300600-
COASTAL MARINE OBSERVATIONS

STATION/POSITION TIME  TEMP    WIND        PRES    WAVE
                       AIR SEA DIR/SP/G            HT/PER
                 (UTC) (F)     (DEG/KT/KT) (MB)    (FT/S)
MATINICUS ROCK   0400          280/  4/  4 1013.5R
PORTLAND WX BUOY 0500   62 60  300/  2/  2 1013.9R   3/ 8
WELLS            0500   60 52   CALM  /  3 1013.1R
ISLE OF SHOALS   0400   64     300/  4/  4 1013.1R
JEFFREYS LEDGE   0400      63                N/A     3/ 9
CASHES LEDGE BUO 0500   66 66  180/  8/ 10 1013.6R   4/ 8
$$

.............KEY..............
   WCI - WIND CHILL
   TC  - TEMPERATURE IN CELSIUS
   VSB - VISIBILITY IN MILES
   HX  - HEAT INDEX
   FAIR- INDICATES FEW OR NO CLOUDS BELOW 12,000 FT, WITH NO
         SIGNIFICANT WEATHER AND/OR OBSTRUCTIONS TO VISIBILITY.




USA.gov is the U.S. government's official web portal to all federal, state and local government web resources and services.